OpenBCM V1.13 (Linux)

Packet Radio Mailbox

DB0FHN

[JN59NK Nuernberg]

 Login: GUEST





  
LU9DCE > KEP      29.04.19 19:34l 243 Lines 11999 Bytes #999 (0) @ WW
BID : 23126_LU9DCE
Read: DF7EAV DK3UZ GUEST
Subj: TLE 29 04
Path: DB0FHN<DB0BLO<DB0ERF<DB0RES<IR2UBX<IW2OHX<HB9ON<IW0QNL<JH4XSY<N3HYM<
      LU9DCE
Sent: 190429/1801Z 23126@LU9DCE.TOR.BA.ARG.SOAM LinBPQ6.0.18

            __    _  _  ___  ____   ___  ____    ____  ____  ____
           (  )  / )( \/ _ \(    \ / __)(  __)  (  _ \(  _ \/ ___)
           / (_/\) \/ (\__  )) D (( (__  ) _)    ) _ ( ) _ (\___ \
           \____/\____/(___/(____/ \___)(____)  (____/(____/(____/
               ESTACION DE PACKET RADIO - BUENOS AIRES (GF05OM)
                   BOLETINES INFORMATIVOS PROGRAMADOS (BIP)
              28.125 USB @ 300 BAUD --- HELLOCODELINUX@GMAIL.COM

+----------------------------------------------------------------------------+
OSCAR 7
1  7530U 74089B   19119.19291767 -.00000040  00000-0  31064-4 0  9999
2  7530 101.7402  87.3818 0012569  84.4928 346.1242 12.53637727 34197
OSCAR 11 (UoSAT 2)
1 14781U 84021B   19118.96387185 +.00000049 +00000-0 +12112-4 0  9997
2 14781 097.6155 146.0691 0009834 121.3711 238.8467 14.83079401870249
OSCAR 19 (LUSAT)
1 20442U 90005G   19119.39351802 -.00000007  00000-0  13927-4 0  9992
2 20442  98.6448  61.4886 0010783 301.1645  58.8481 14.32923383529171
EYESAT A
1 22825U 93061C   19118.98393030  .00000009  00000-0  21378-4 0  9997
2 22825  98.9009 106.4709 0009048 140.8332 219.3506 14.30056782334704
ITAMSAT
1 22826U 93061D   19118.99741109  .00000001  00000-0  18234-4 0  9992
2 22826  98.8950 106.4827 0009711 130.9139 229.2885 14.30390037334908
RADIO ROSTO
1 23439U 94085A   19118.87384018 -.00000050 +00000-0 -20504-3 0  9997
2 23439 064.8160 198.3041 0147170 123.0841 238.4310 11.27567719002169
JAS 2
1 24278U 96046B   19118.89860174 -.00000035 +00000-0 +85197-6 0  9996
2 24278 098.5300 279.2168 0350520 011.9232 348.9944 13.53090762120682
TECHSAT 1B
1 25397U 98043D   19119.43888516 -.00000025  00000-0  84402-5 0  9995
2 25397  98.6851  60.2023 0001622 138.7853 221.3449 14.23664217 80722
ISS (ZARYA)
1 25544U 98067A   19119.58445602  .00001381  00000-0  29512-4 0  9991
2 25544  51.6417 242.7729 0000881 251.7287 292.8847 15.52604127167702
PCSAT
1 26931U 01043C   19119.23223528 -.00000025  00000-0  22063-4 0  9992
2 26931  67.0492 133.8901 0006109 279.1317  80.9093 14.30539727917751
SAUDISAT 1C
1 27607U 02058C   19118.85094172 -.00000022  00000-0  17878-4 0  9993
2 27607  64.5551 205.0343 0082386 266.2109  92.9570 14.75539511879535
CUTE-1
1 27844U 03031E   19119.49023197  .00000049  00000-0  41938-4 0  9990
2 27844  98.6856 128.4511 0010021 169.5674 190.5713 14.22172639821153
CUBESAT XI 4
1 27848U 03031J   19118.97546094  .00000032  00000-0  34539-4 0  9993
2 27848  98.6934 128.4327 0009646 182.1270 177.9868 14.21768280820930
MOZHAYETS 4
1 27939U 03042A   19119.43070720  .00000082  00000-0  23338-4 0  9996
2 27939  98.0309 256.2493 0012060 222.2425 137.7856 14.66772678833173
CUBESAT XI 5
1 28895U 05043F   19118.91995058 +.00000111 +00000-0 +30191-4 0  9991
2 28895 097.9510 263.4143 0017649 148.2293 211.9979 14.63653129719829
CUTE-1.7+APD II
1 32785U 08021C   19119.53016091  .00000198  00000-0  26933-4 0  9997
2 32785  97.5497 121.6120 0014653  71.7169 288.5641 14.88286079596222
DELFI C3
1 32789U 08021G   19118.95214813 +.00001485 +00000-0 +10362-3 0  9996
2 32789 097.4695 170.1382 0010682 302.5477 057.4718 15.06830764599227
SEEDS
1 32791U 08021J   19119.49860316  .00000406  00000-0  46548-4 0  9992
2 32791  97.5293 127.5004 0014605  49.9372 310.3125 14.90785526596639
YUBELEINY
1 32953U 08025A   19119.42253267  .00000020  00000-0  75656-4 0  9994
2 32953  82.5058 176.0271 0018129 236.3004 123.6345 12.43089018496060
PRISM (HITOMI)
1 33493U 09002B   19118.85028630  .00000931  00000-0  87160-4 0  9994
2 33493  98.1224  37.8770 0015019 357.7517   2.3633 14.96595602557543
KKS-1 (KISEKI)
1 33499U 09002H   19119.21873720  .00000094  00000-0  21870-4 0  9995
2 33499  98.3537 316.3071 0009477  15.3965 344.7529 14.75427293551786
SWISSCUBE
1 35932U 09051B   19119.16490186  .00000135  00000-0  41611-4 0  9999
2 35932  98.5827 283.6733 0006807 328.4140  31.6647 14.56268094509420
BEESAT
1 35933U 09051C   19118.89618804 +.00000115 +00000-0 +36895-4 0  9994
2 35933 098.5858 285.1304 0005325 346.6351 013.4704 14.56359317509416
ITUPSAT 1
1 35935U 09051E   19118.92461290 +.00000090 +00000-0 +31754-4 0  9996
2 35935 098.5969 285.4010 0007542 339.5481 020.5412 14.55521499509221
XIWANG-1 (HOPE-1)
1 36122U 09072B   19118.73661038 -.00000048  00000-0 -15864-4 0  9998
2 36122 100.0731 123.5122 0008122  99.6072 260.5949 13.16349150450175
TISAT 1
1 36799U 10035E   19118.94992474 +.00000390 +00000-0 +45524-4 0  9997
2 36799 098.1486 269.4411 0010987 249.7870 110.2166 14.91063879477004
JUGNU
1 37839U 11058B   19119.50914632  .00000306  00000-0  21472-4 0  9995
2 37839  19.9611 279.0914 0018944 133.5203 268.5922 14.12648513390151
SRMSAT
1 37841U 11058D   19118.93147229 +.00000315 +00000-0 +28214-4 0  9995
2 37841 019.9731 338.3180 0011756 359.4626 099.3437 14.10630083389423
M-CUBED/EXP-1 PRIME
1 37855U 11061F   19118.55351224  .00000542  00000-0  35460-4 0  9997
2 37855 101.7221 347.8895 0173793 228.3579 130.2640 15.05295817409084
HORYU 2
1 38340U 12025D   19118.92540316 +.00000146 +00000-0 +29388-4 0  9993
2 38340 098.3345 155.9783 0010164 287.6860 072.3238 14.75697608363267
STRAND 1
1 39090U 13009E   19118.74933403  .00000032  00000-0  26279-4 0  9992
2 39090  98.4939 325.5486 0010374  81.3976 278.8385 14.35080014323080
SOMP
1 39134U 13015E   19118.63580903  .00000863  00000-0  49025-4 0  9995
2 39134  64.8631 185.8333 0026033 311.4140  48.4749 15.20022081332835
BEESAT 3
1 39135U 13015F   19118.66537835  .00000692  00000-0  44327-4 0  9995
2 39135  64.8666 203.3278 0013605 321.4807  38.5347 15.17350328332502
BEESAT 2
1 39136U 13015G   19119.21090839  .00000775  00000-0  49163-4 0  9991
2 39136  64.8693 205.2340 0014625 312.3211  47.6674 15.16795587332519
CUBEBUG 1
1 39153U 13018D   19119.48125469  .00000141  00000-0  25337-4 0  9994
2 39153  97.9748 217.8987 0016944   6.3498 353.7926 14.80546119324387
ZACUBE
1 39417U 13066B   19119.50877089  .00000187  00000-0  29889-4 0  9991
2 39417  97.5655 135.8242 0058524 197.0663 162.8584 14.81090256293615
TRITON 1
1 39427U 13066M   19118.94192720 +.00000187 +00000-0 +37972-4 0  9993
2 39427 097.6722 099.4673 0113085 328.6932 030.7572 14.67816885290705
GOMX 1
1 39430U 13066Q   19119.49841009  .00000212  00000-0  47017-4 0  9999
2 39430  97.7417  79.3724 0152663  52.7550 308.7454 14.59227878289288
HUMSAT D
1 39433U 13066T   19119.38728617  .00000192  00000-0  24067-4 0  9996
2 39433  97.5591 168.9342 0032441 107.9767 252.4993 14.92145378295570
CUBEBUG 2
1 39440U 13066AA  19118.90133153  .00000178  00000-0  31998-4 0  9991
2 39440  97.6022 120.3391 0078808 249.6259 109.6474 14.75829704292488
FUNCUBE 1
1 39444U 13066AE  19119.53696706  .00000212  00000-0  32446-4 0  9991
2 39444  97.5638 137.7464 0057816 190.9690 169.0268 14.81903425292504
UWE-3
1 39446U 13066AG  19119.53398626  .00000166  00000-0  28837-4 0  9990
2 39446  97.5826 127.8945 0068964 222.7978 136.7853 14.78363939291852
SPROUT
1 39770U 14029E   19119.24114586  .00000426  00000-0  53364-4 0  9991
2 39770  97.8797 222.8795 0007663 251.0015 109.0395 14.87272101267337
UNISAT 6
1 40012U 14033C   19119.50823230  .00000139  00000-0  28256-4 0  9992
2 40012  97.7650 348.2613 0056872 259.6497  99.8298 14.73955815261293
DUCHIFAT 1
1 40021U 14033M   19119.19803525  .00000425  00000-0  49317-4 0  9991
2 40021  97.9234  43.6285 0011926 211.5726 148.4777 14.90586306264028
QB50P1
1 40025U 14033R   19118.82699529  .00000189  00000-0  26182-4 0  9993
2 40025  97.9065  38.5925 0011323 222.2466 137.7880 14.88911501263750
CHUBUSAT 1
1 40300U 14070C   19119.29007186  .00000459  00000-0  23057-4 0  9992
2 40300  97.3281 194.7399 0018716 232.1355 156.9357 15.22010839248354
NUDT-PHONESAT
1 40900U 15049B   19119.44428943  .00001915  00000-0  85365-4 0  9998
2 40900  97.4392 129.2782 0013249  10.2869 124.0685 15.22575328200014
ZDPS 2A
1 40901U 15049C   19119.51345419  .00000689  00000-0  37511-4 0  9990
2 40901  97.4612 126.0659 0014550  24.9965 126.3468 15.17633561199629
ZDPS 2B
1 40902U 15049D   19119.39627734  .00001287  00000-0  67600-4 0  9997
2 40902  97.4549 123.5204 0014574  22.9171 106.8136 15.17418546199584
XW-2A
1 40903U 15049E   19119.48116939  .00001629  00000-0  40624-4 0  9995
2 40903  97.3442 161.9506 0012697 335.8735 131.4473 15.41651298202519
KAITUO 1A
1 40904U 15049F   19119.42339192  .00000475  00000-0  28673-4 0  9996
2 40904  97.4675 122.2966 0015887  27.9047 107.6783 15.15314203199380
OBJECT G
1 40905U 15049G   19119.40090980  .00000663  00000-0  39749-4 0  9999
2 40905  97.4701 119.8900 0016684  22.9528 105.8114 15.14248364199264
XW-2C
1 40906U 15049H   19119.43413817  .00000452  00000-0  27246-4 0  9996
2 40906  97.4683 122.3496 0015706  20.5151 113.6903 15.15604159199388
XW-2D
1 40907U 15049J   19119.41786319  .00000758  00000-0  43077-4 0  9994
2 40907  97.4661 122.0123 0015473  17.7957 116.3030 15.15788529199398
LILACSAT 2
1 40908U 15049K   19119.43095192  .00000238  00000-0  16815-4 0  9992
2 40908  97.4789 120.9541 0017042  21.9981 114.8621 15.13758718199203
XW-2F
1 40910U 15049M   19119.55514351  .00001009  00000-0  54046-4 0  9996
2 40910  97.4634 124.0323 0015558  11.6344 103.7752 15.17185358199410
XW-2B
1 40911U 15049N   19119.45267012  .00000468  00000-0  28021-4 0  9997
2 40911  97.4680 122.6798 0014722  19.1324 139.1120 15.15718728199294
KAITUO 1B
1 40912U 15049P   19119.47207650  .00001205  00000-0  59919-4 0  9992
2 40912  97.4511 127.4803 0015120 355.5073 161.1715 15.19483619199689
TIANWANG 1C (TW-1C)
1 40926U 15051B   19119.40581936  .00009567  00000-0  14597-3 0  9996
2 40926  97.1411 165.6660 0008039 184.7620 304.1340 15.54623649202345
